星链-37467(STARLINK-37467)

导读

STARLINK-37467(NORAD编号68855)是美国SpaceX公司星链(Starlink)星座中的一颗低地球轨道(LEO)通信卫星。作为星链大规模组网计划的组成部分,它运行在近地轨道,旨在为全球提供高速低延迟互联网服务,尤其服务地面基础设施覆盖不足的偏远地区、海洋及航空移动场景。 该卫星继承了星链卫星的小型化设计,依托星链星座规模化部署优势,参与构建全球卫星互联网通信网络,支持民用及特定场景下的应急、军事通信需求,目前处于在轨运行状态。

基本信息
目录编号:
68855
目录名称:
STARLINK-37467
国际标识:
2026-094S
轨道中心:
EARTH
卫星名称:
星链-37467
卫星全名:
星链-37467(STARLINK-37467)
卫星状态:
在轨 (已飞行140 天)
发射日期:
2026-04-26 UTC
国别 :
美国 (US)
星等 :
--
该卫星已列入 空间交会检测服务 Space Conjunction Data Service (SCDS) ,当前飞行风险评估等级: 无高风险
轨道信息
数据来源 国际轨道数据 AOE轨道数据
星历时间 2026-09-13T08:33:09+0800
12小时前
查看轨道信息
2026-09-11T12:00:00+0800
2天前
查看轨道信息
半长轴 6843.726km 6843.666km
偏心率 0.0001584 0.0001665
轨道倾角 97.284° 97.284°
近地点辐角 97.238° 97.553°
升交点赤经 269.285° 267.454°
平近点角 262.904° 101.430°
近地点 464.504km 464.389km
远地点 466.674km 466.669km
周期 93.907分钟 93.906分钟
每日圈数 15.334298 15.334501
详细信息
固有亮度:
5
最大亮度:
2.5
卫星平台:
Starlink V1.0
覆盖范围:
全球
运营商:
太空探索技术公司
运营商所在国:
美国
制造商(研发单位):
太空探索技术公司
制造商所在国:
美国
使用方式:
暂无
卫星简介
Starlink 计划是 SpaceX 推出的全球卫星互联网项目,通过发射低轨道卫星,为全球尤其是偏远地区提供高速、低延迟的互联网服务。自 2019 年起,Starlink 已部署数千颗卫星,旨在缩小全球数字鸿沟,推动互联网普及。该项目还为军事、航空等行业提供通信支持,带来广泛经济效益。
2D轨道图
3D轨道图
轨道高度分析图
轨道倾角分析图
轨道综合分析图
查看轨道综合分析图
交会数据列表
事件ID 空间交会对象 最接近时刻(TCA) 交会距离 交会风险概率(CRP) 交会风险指数(CRI) 操作
CDM_260915-070006-788606-885521
2026-09-15T
07:00:08+0000
0.391 km
远距离
2.724366E-4 高风险 0.84
CDM_260915-092106-788606-885521
2026-09-15T
09:21:05+0000
0.535 km
远距离
1.370545E-4 高风险 0.78
CDM_260915-055704-791106-885521
2026-09-15T
05:57:29+0000
1.796 km
极远距离
3.769867E-6 低风险 0.47
CDM_260915-022506-885506-902721
2026-09-15T
02:25:18+0000
1.830 km
极远距离
3.647934E-6 低风险 0.46
CDM_260915-055704-791106-885522
2026-09-15T
05:57:29+0000
2.694 km
极远距离
1.526609E-6 低风险 0.39
CDM_260915-052606-788606-885521
2026-09-15T
05:26:11+0000
2.516 km
极远距离
1.365347E-6 低风险 0.38
CDM_260915-105506-788606-885521
2026-09-15T
10:55:03+0000
2.666 km
极远距离
1.245031E-6 低风险 0.37
CDM_260914-192304-811506-885521
2026-09-14T
19:23:28+0000
2.940 km
极远距离
1.143493E-6 低风险 0.36
CDM_260913-182104-604506-885521
2026-09-13T
18:21:15+0000
2.812 km
极远距离
1.098949E-6 低风险 0.36
CDM_260914-170605-231306-885521
2026-09-14T
17:06:54+0000
2.802 km
极远距离
9.718828E-7 极低风险 0.35
与全量物体交会距离演化趋势
与全量物体交会风险概率演化趋势